Regional Weather Roundup
Issued by NWS Jackson, KY

Home | Current Version | Previous Version | Graphics & Text | Print | Product List | Glossary On
Versions: 1 2 3 4 5 6 7 8 9 10 11 12 13 14 15 16 17 18 19 20 21 22 23 24 25 26 27 28 29 30 31 32 33 34 35 36 37 38 39 40 41 42 43 44 45 46 47 48 49 50
000
ASUS43 KJKL 311510
RWRJKL

EAST KENTUCKY HOURLY WEATHER ROUNDUP
NATIONAL WEATHER SERVICE JACKSON KY
1100 AM EDT FRI JUL 31 2015

NOTE: "FAIR" INDICATES FEW OR NO CLOUDS BELOW 12,000 FEET WITH
NO SIGNIFICANT WEATHER AND/OR OBSTRUCTIONS TO VISIBILITY.

* THESE REPORTS ARE NOT UNDER NWS QUALITY CONTROL AND MAY NOT
  REPORT WEATHER SUCH AS PRECIPITATION AND FOG.

KYZ079-080-083-085-087-088-110-112-115-119-120-311600
...EASTERN KENTUCKY...

CITY           SKY/WX    TMP DP  RH WIND       PRES   REMARKS
JACKSON        SUNNY     76  65  68 CALM      30.11S
LONDON         SUNNY     80  58  46 N5        30.11F
SOMERSET*      SUNNY     77  59  53 CALM      30.12S
MONTICELLO*    SUNNY     80  65  60 CALM      30.14S
WILLIAMSBURG*  SUNNY     75  66  73 CALM      30.12S
MIDDLESBORO*   SUNNY     75  63  66 CALM      30.11F
HAZARD APT*    SUNNY     77  64  65 CALM      30.10F
BLACK MTN*       N/A     68  57  68 N6          N/A
PIKEVILLE APT* SUNNY     73  68  83 SW3       30.11S
BIG SANDY*     SUNNY     76  64  65 CALM      30.10S
MOREHEAD APT*  SUNNY     77  63  61 CALM      30.11S
$$

KYZ035-036-041-042-044-050-067-078-099-311600
...CENTRAL KENTUCKY...

CITY           SKY/WX    TMP DP  RH WIND       PRES   REMARKS
MT STERLING*   SUNNY     79  63  57 CALM      30.11S
FLEMING/MASON* SUNNY     79  66  65 SW5       30.09S
DANVILLE*      SUNNY     79  63  57 CALM      30.12S
RICHMOND*      SUNNY     77  61  57 CALM      30.10S
LEXINGTON      SUNNY     80  64  58 W6        30.10S
FRANKFORT      SUNNY     82  62  50 VRB5      30.08F
$$

KYZ091>093-OHZ055-061-077-WVZ005-015-034-035-042-311600
...SOUTHERN OHIO/WEST VIRGINIA...

CITY           SKY/WX    TMP DP  RH WIND       PRES   REMARKS
COVINGTON      SUNNY     80  66  62 W6        30.07S
COLUMBUS       SUNNY     80  63  55 VRB6      30.01F
DAYTON         SUNNY     78  66  66 W9        30.06S
WILMINGTON     SUNNY     79  64  60 W6        30.05F
HUNTINGTON     SUNNY     78  64  61 VRB3      30.06S
CHARLESTON     SUNNY     77  62  59 VRB3      30.06F
PINEVILLE*     SUNNY     75  67  76 MISG      30.15F
BECKLEY        SUNNY     74  55  51 NW5       30.13F
BLUEFIELD      PTSUNNY   75  55  49 NW6       30.16R
$$

VAZ002-007-008-TNZ017-027-036-066-071-311600
...SOUTHWEST VIRGINIA/EAST TENNESSEE...

CITY           SKY/WX    TMP DP  RH WIND       PRES   REMARKS
WISE*          MOSUNNY   73  52  46 N8        30.17S
ABINGDON*      MOSUNNY   76  55  48 N3        30.13R
BRISTOL        MOSUNNY   79  61  53 VRB5      30.10S
KNOXVILLE      MOSUNNY   80  61  52 NE12      30.07F
OAK RIDGE      SUNNY     81  60  48 NE6       30.09F
CROSSVILLE     SUNNY     78  57  48 NE9       30.14F
NASHVILLE      MOSUNNY   81  60  48 E6        30.10F
$$

...KEY TO REMARKS...
VSB - VISIBILITY IN MILES
WCI - WIND CHILL INDEX
HX  - HEAT INDEX

$$



USA.gov is the U.S. government's official web portal to all federal, state and local government web resources and services.